Zurück zum Katalog

STARLINK-33573

AktivKommunikationVLEO
NORAD 62778·PAYLOAD·🇺🇸 United States

Gestartet Jan 21, 2025 von Vandenberg Space Force Base

Loading…

Nächste Überflüge (nächste 24 Stunden)

TLE

AktuellSource: CelesTrak SupGP

Epoche: Sep 15, 2026, 02:49 UTC

1 62778C 25015W   26258.11784722  .00007004  00000+0  20694-3 0  2580
2 62778  53.1576 159.1901 0001261  84.6205 189.2421 15.34387128    10

Verfolge STARLINK-33573 in Echtzeit mit AllMySat

Download on the App Store